Regional Weather Roundup
Issued by NWS

Home | Current Version | Previous Version | Graphics & Text | Print | Product List | Glossary Off
Versions: 1 2 3 4 5 6 7 8 9 10 11 12 13 14 15 16 17 18 19 20 21 22 23 24 25 26 27 28 29 30 31 32 33 34 35 36 37 38 39 40 41 42 43 44 45 46 47 48 49 50

256
ASUS43 KTOP 230759
RWRKS

WEATHER ROUNDUP FOR KANSAS
NATIONAL WEATHER SERVICE GOODLAND KS
300 AM CDT FRI JUN 23 2017

NOTE:  "FAIR" INDICATES FEW OR NO CLOUDS BELOW 12,000 FEET WITH NO
SIGNIFICANT WEATHER AND/OR OBSTRUCTIONS TO VISIBILITY.

KSZ001>006-013>018-027>032-041>047-230900-
NORTHWEST KANSAS

CITY           SKY/WX    TMP DP  RH WIND       PRES   REMARKS
GOODLAND       CLOUDY    64  50  60 NE10      30.00F
HAYS           CLOUDY    69  63  81 N22       29.84F
HILL CITY      CLOUDY    68  59  73 N15       29.92S
RUSSELL        CLOUDY    69  63  81 N21       29.81F
$$

KSZ061>065-074>080-084>089-230900-
SOUTHWEST KANSAS

CITY           SKY/WX    TMP DP  RH WIND       PRES   REMARKS
DODGE CITY     CLEAR     65  61  87 NW8       29.84F
ELKHART          N/A     65  54  68 NE9         N/A
GARDEN CITY    CLOUDY    68  61  78 NE14      29.87S
GREAT BEND     PTCLDY    70  64  81 N23       29.77F
LIBERAL        LGT RAIN  71  62  73 NW13      29.87R
$$

KSZ066>073-081>083-090>101-230900-
SOUTHEAST KANSAS

CITY           SKY/WX    TMP DP  RH WIND       PRES   REMARKS
CHANUTE        PTCLDY    73  71  93 S6        29.70F
COFFEYVILLE    CLEAR     72  71  97 W3        29.70F
HUTCHINSON     CLOUDY    77  64  64 NE10      29.70F
MEDICINE LODGE   N/A     73  61  65 CALM      29.74S
NEWTON         MOCLDY    76  65  68 N13       29.73F
PARSONS        PTCLDY    71  69  93 CALM      29.72F
WICHITA INTL   CLOUDY    76  65  68 N5        29.71F
WICHITA JABRA  CLEAR     77  68  73 W7        29.72F
WINFIELD       PTCLDY    73  71  93 W3        29.74F
$$

KSZ007>012-019>026-033>040-048>060-102>105-230900-
NORTHEAST KANSAS

CITY           SKY/WX    TMP DP  RH WIND       PRES   REMARKS
CONCORDIA      CLOUDY    73  64  73 N18G24    29.81R
EMPORIA        PTCLDY    75  72  90 S9        29.68F
LAWRENCE       MOCLDY    75  75 100 E5        29.69F
MANHATTAN      MOCLDY    76  71  85 N7        29.70S
OLATHE IND     PTCLDY    73  72  96 S6        29.71F
OLATHE EXE     CLEAR     73  73 100 S5        29.70F
SALINA         CLOUDY    77  65  66 N21       29.74S
TOPEKA BILLARD CLOUDY    77  74  90 S6        29.68F
TOPEKA FORBES  CLOUDY    76  71  85 S6        29.69F
$$




USA.gov is the U.S. government's official web portal to all federal, state and local government web resources and services.